Location: Gazon
(48.1318°N, 1.2708°W)
Time: 23:22:11
(UTC+00:00)

CZ-2C R/B - Pass Details

Date: 18 September 2020
Orbit: 785 x 870 km, 98.2° (Epoch: 25 October)

Event Time Altitude Azimuth Distance (km) Brightness Sun altitude
Rises 20:57:15 0° 7° (N) 3,407 6.2 -26.7°
Reaches altitude 10° 20:59:47 10° 358° (N) 2,481 5.6 -27.1°
Maximum altitude 21:04:41 34° 296° (WNW) 1,389 4.3 -27.7°
Drops below altitude 10° 21:09:37 10° 233° (SW) 2,503 5.3 -28.3°
Sets 21:12:12 0° 225° (SW) 3,442 5.9 -28.7°
